TimeEST,TemperatureF,Dew PointF,Humidity,Sea Level PressureIn,VisibilityMPH,Wind Direction,Wind SpeedMPH,Gust SpeedMPH,PrecipitationIn,Events,Conditions,WindDirDegrees,DateUTC
12:45 AM,28.4,24.8,86,30.07,10.0,WNW,3.5,-,N/A,,Mostly Cloudy,290,2012-11-09 05:45:00
12:54 AM,28.9,25.0,85,30.14,10.0,Variable,3.5,-,N/A,,Mostly Cloudy,0,2012-11-09 05:54:00
1:35 AM,28.4,26.6,93,30.08,10.0,West,5.8,-,N/A,,Overcast,280,2012-11-09 06:35:00
1:54 AM,30.0,26.1,85,30.14,10.0,WNW,8.1,-,N/A,,Overcast,290,2012-11-09 06:54:00
2:54 AM,30.0,27.0,88,30.16,10.0,WNW,8.1,-,N/A,,Overcast,290,2012-11-09 07:54:00
3:54 AM,30.0,27.0,88,30.17,10.0,WNW,10.4,17.3,N/A,,Overcast,290,2012-11-09 08:54:00
4:54 AM,30.9,28.0,89,30.19,10.0,WNW,10.4,-,N/A,,Overcast,300,2012-11-09 09:54:00
5:54 AM,30.9,28.0,89,30.21,8.0,WNW,9.2,-,N/A,,Overcast,290,2012-11-09 10:54:00
6:54 AM,30.9,28.0,89,30.23,8.0,WNW,9.2,-,N/A,,Overcast,290,2012-11-09 11:54:00
7:54 AM,30.9,28.0,89,30.25,8.0,West,8.1,-,N/A,,Overcast,280,2012-11-09 12:54:00
8:17 AM,32.0,28.4,87,30.18,10.0,West,8.1,-,N/A,,Scattered Clouds,270,2012-11-09 13:17:00
8:54 AM,34.0,28.9,82,30.25,10.0,West,9.2,-,N/A,,Clear,280,2012-11-09 13:54:00
9:54 AM,37.9,28.9,70,30.26,10.0,WNW,10.4,-,N/A,,Clear,300,2012-11-09 14:54:00
10:54 AM,39.9,28.9,65,30.26,10.0,WNW,12.7,20.7,N/A,,Clear,290,2012-11-09 15:54:00
11:54 AM,43.0,30.9,62,30.25,10.0,WNW,10.4,-,N/A,,Clear,300,2012-11-09 16:54:00
12:54 PM,44.1,30.9,60,30.22,8.0,WNW,10.4,-,N/A,,Clear,290,2012-11-09 17:54:00
1:54 PM,46.0,30.9,56,30.20,9.0,WSW,11.5,-,N/A,,Clear,240,2012-11-09 18:54:00
2:54 PM,46.9,30.0,52,30.20,10.0,West,10.4,-,N/A,,Clear,260,2012-11-09 19:54:00
3:54 PM,46.0,30.9,56,30.20,10.0,West,10.4,-,N/A,,Clear,270,2012-11-09 20:54:00
4:54 PM,44.1,30.0,58,30.20,10.0,West,12.7,-,N/A,,Clear,280,2012-11-09 21:54:00
5:54 PM,42.1,30.0,62,30.21,10.0,West,6.9,-,N/A,,Clear,260,2012-11-09 22:54:00
6:54 PM,41.0,30.9,67,30.23,10.0,WSW,6.9,-,N/A,,Clear,250,2012-11-09 23:54:00
7:54 PM,42.1,30.0,62,30.22,10.0,SSW,8.1,-,N/A,,Clear,210,2012-11-10 00:54:00
8:54 PM,42.1,30.0,62,30.22,10.0,SW,9.2,-,N/A,,Clear,220,2012-11-10 01:54:00
9:54 PM,41.0,30.0,65,30.22,10.0,SW,8.1,-,N/A,,Clear,220,2012-11-10 02:54:00
10:54 PM,37.9,28.9,70,30.23,10.0,WSW,6.9,-,N/A,,Clear,240,2012-11-10 03:54:00
11:54 PM,39.9,28.0,63,30.22,10.0,SW,5.8,-,N/A,,Clear,220,2012-11-10 04:54:00